Other Public Products
Issued by NWS Grand Forks, ND

Home | Current Version | Previous Version | Text Only | Print | Product List | Glossary Off
Versions: 1 2 3 4 5 6 7 8 9 10 11 12 13 14 15 16 17 18 19 20 21 22 23 24 25 26 27 28 29 30 31 32 33 34 35 36 37 38 39 40 41 42 43 44 45 46 47 48 49 50

000
FPUS83 KFGF 271710
OPUFGF
PRAIRIE TO PINES WEATHER ROUNDUP
NATIONAL WEATHER SERVICE EASTERN NORTH DAKOTA/GRAND FORKS ND
1200 PM CDT FRI MAY 27 2016

 **SATELLITE DATA USED TO AUGMENT SKY COVER AT AUTOMATED STATIONS**
 *****  WEATHER ACROSS EASTERN NORTH DAKOTA  *****

CITY           SKY/WX    TMP DP  RH WIND       PRES   REMARKS
GRAND FORKS    PTSUNNY   68  53  58 CALM      29.80F
GRAND FORKS AF MOSUNNY   67  53  61 VRB3      29.81F
GRAND CITY NWS   N/A     68 N/A N/A NE7         N/A
BUXTON           N/A     69  62  77 NW5         N/A
DEVILS LAKE    PTSUNNY   64  54  69 SW8       29.83R
FARGO          CLOUDY    73  58  59 N12       29.76F
WAHPETON ARPT  CLOUDY    77  46  33 E13       29.75F
$$

 *****  WEATHER ACROSS CENTRAL AND WESTERN NORTH DAKOTA  *****

CITY           SKY/WX    TMP DP  RH WIND       PRES   REMARKS
JAMESTOWN      CLOUDY    66  52  60 NE3       29.82S
BISMARCK       MOSUNNY   68  51  54 N10       29.83S
MINOT          CLOUDY    64  54  69 N7        29.82S
MINOT AFB      PTSUNNY   61  54  77 N10       29.82R
GARRISON         N/A     62  49  62 NW8       29.83S
WILLISTON      PTSUNNY   64  50  60 N9        29.85F
DICKINSON      MOSUNNY   64  47  53 VRB6      29.83S
HETTINGER      PTSUNNY   67  46  47 N9        29.85R
$$

 *****  OTHER OBSERVATIONS NORTHEAST NORTH DAKOTA  *****

CITY           SKY/WX    TMP DP  RH WIND       PRES   REMARKS
WALHALLA       FAIR      63  63 100 CALM      29.82S
LANGDON        CLOUDY    63  55  77 VRB5      29.83R
CAVALIER       CLOUDY    64  55  72 SE7       29.81S
GRAFTON        PTSUNNY   64  55  72 VRB3      29.83S
CANDO          NOT AVBL
FORT TOTTEN      N/A     64  52  64 SW3       29.95S
ROLLA          PTSUNNY   59  57  94 N13       29.84R
RUGBY          CLOUDY    59  52  77 NW6       29.83R
 ***** THE ABOVE OBSERVATIONS ARE NON NWS ARE NOT QUALITY
        CONTROLLED AND MAY MIS-REPORT RAIN FOR SNOW...
$$

 *****  OTHER OBSERVATIONS SOUTHEAST NORTH DAKOTA *****

CITY           SKY/WX    TMP DP  RH WIND       PRES   REMARKS
COOPERSTOWN    NOT AVBL
VALLEY CITY    FAIR      64  61  88 NE6       29.83F
OAKES            N/A    N/A N/A N/A MISG        N/A
GWINNER        FAIR      70  57  64 NE13      29.78F
BUFFALO          N/A     67  58  71 NE7         N/A
WYNDMERE       NOT AVBL
 ***** THE ABOVE OBSERVATIONS ARE NON NWS ARE NOT QUALITY
       CONTROLLED AND MAY MIS-REPORT RAIN FOR SNOW...
$$

  *****  WEATHER ACROSS NORTHERN MINNESOTA  *****

CITY           SKY/WX    TMP DP  RH WIND       PRES   REMARKS
FLAG ISLAND    MOSUNNY   61  55  82 S6        29.83S
WARROAD        PTSUNNY   66  59  77 NE6       29.83F
ROSEAU         PTSUNNY   68  59  73 S3        29.82S
HALLOCK        CLOUDY    66  57  72 S7        29.81S
THF RVR FALLS  MOSUNNY   70  52  52 CALM      29.82F
HALSTAD        NOT AVBL
FOSSTON        MOSUNNY   73  70  88 E5        29.79F
BAUDETTE       CLOUDY    69  55  60 E3        29.82F
WASKISH        PTSUNNY   73  55  53 E15       29.82S
CROOKSTON      CLOUDY    68  57  68 CALM      29.81S
$$
  *****  WEATHER ACROSS CENTRAL AND WEST MINNESOTA  *****

CITY           SKY/WX    TMP DP  RH WIND       PRES   REMARKS
BEMIDJI        CLOUDY    69  51  54 E12G18    29.83S
PARK RAPIDS    PTSUNNY   68  54  60 SE9       29.81S
WADENA         CLOUDY    64  55  72 NE3       29.80R
DETROIT LAKES  MOSUNNY   72  54  53 NE8       29.79F
MOORHEAD       MOSUNNY   73  57  56 N8        29.77F
FERGUS FALLS   CLOUDY    64  55  72 E6        29.74F
ELBOW LAKE     DRIZZLE   65  55  69 NE10      29.78R
MORRIS MN      CLOUDY    64  59  82 CALM      29.77R
STAPLES        CLOUDY    66  55  68 E10       29.81R
WHEATON        PTSUNNY   72  55  56 NE10      29.78R
$$
  *****  WEATHER ELSEWHERE ACROSS MINNESOTA  *****

CITY           SKY/WX    TMP DP  RH WIND       PRES   REMARKS
DULUTH         LGT RAIN  59  53  80 CALM      29.90R
INTRNTL FALLS  PTSUNNY   72  56  57 SE8       29.85R
ELY            LGT RAIN  70  54  56 S5        29.90R
CLOQUET        LGT RAIN  55  52  88 CALM      29.90R
BRAINERD       LGT RAIN  62  59  90 SE9G20    29.84R
HIBBING        LGT RAIN  58  56  93 CALM      29.91R FOG
ALEXANDRIA     CLOUDY    68  58  70 SE8       29.79S
SAINT CLOUD    LGT RAIN  63  61  93 E7        29.82R
MINNEAPOLIS    LGT RAIN  64  61  90 SE3       29.81F FOG
$$

  *****  WEATHER ACROSS SOUTH DAKOTA  *****

CITY           SKY/WX    TMP DP  RH WIND       PRES   REMARKS
SIOUX FALLS    LGT RAIN  68  58  70 VRB3      29.76F
BROOKINGS      CLOUDY    63  58  83 SW8       29.78F
WATERTOWN      LGT RAIN  60  56  86 S8        29.80R
HURON          CLOUDY    63  59  87 SW12      29.79R THUNDER
SISSETON         N/A     75  50  41 E10       29.74F
ABERDEEN       CLOUDY    71  56  58 N9        29.77F
MITCHELL       CLOUDY    64  60  87 SW8       29.78F
PIERRE         LGT RAIN  65  54  67 CALM      29.82R
MOBRIDGE       CLOUDY    68  49  50 N9        29.80S
RAPID CITY     PTSUNNY   65  44  46 N14       29.86R
$$

  *****  SOME WEATHER IN NEARBY STATES *****

CITY           SKY/WX    TMP DP  RH WIND       PRES   REMARKS
GLASGOW MT     CLOUDY    62  48  60 VRB7      29.87F
GREAT FALLS MT CLOUDY    60  42  51 SW13      29.87F
CHEYENNE WY    CLOUDY    54  36  50 N17G23    29.92S
SCOTTSBLUFF NE LGT RAIN  55  49  80 SE10      29.89R
OMAHA NE       PTSUNNY   72  61  68 S9        29.76R
DES MOINES IA  LGT RAIN  66  63  90 CALM      29.75R FOG
DAVENPORT IA   CLOUDY    73  65  75 S23G29    29.81S
CHICAGO IL     PTSUNNY   78  66  66 S12       29.89F
EAU CLAIRE WI  CLOUDY    71  60  68 E7        29.81R
LA CROSSE WI   PTSUNNY   74  63  68 S3        29.79F
$$

  *****  SOME NATIONAL WEATHER *****

CITY           SKY/WX    TMP DP  RH WIND       PRES   REMARKS
LA GUARDIA NY  MOSUNNY   86  70  58 S10       30.05F HX  90
RALEIGH NC     MOSUNNY   84  64  50 SW8       30.14F
ATLANTA GA     CLOUDY    81  62  52 VRB7      30.13F
NEW ORLEANS LA CLOUDY    84  68  58 S12       29.99S
OKLAHOMA CITY  PTSUNNY   75  60  59 S15       29.71R
ALBUQUERQUE NM MOSUNNY   64  29  26 SW7       29.95F
SALT LAKE CITY MOSUNNY   67  40  37 N6        29.96F
LOS ANGELES CA CLOUDY    62  55  77 W5        29.95F
BOISE ID       SUNNY     57  35  43 NW18      30.01F
SEATTLE WA     PTSUNNY   53  43  68 SW6       30.17S
$$

*** WEATHER ACROSS MANITOBA...SASKATCHEWAN AND ONTARIO ***
                ***ONTARIO***

CITY           SKY/WX    TMP DP  RH WIND       PRES   REMARKS
GERALDTON      PTSUNNY   72  59  64 E12       29.89F
THUNDER BAY    PTSUNNY   55  50  82 NE10      29.92S
SIOUX LOOKOUT  PTSUNNY   68  55  64 W6        29.85R
TORONTO        PTSUNNY   82  68  61 S8        29.96S
BIG TROUT LK   CLOUDY    43  39  87 N9        30.00R
PICKLE LAKE    PTSUNNY   63  57  82 N5        29.87R
DRYDEN         PTSUNNY   68  52  56 SW5       29.85S
KENORA         PTSUNNY   68  54  60 S7        29.85R
$$
                *** MANITOBA***

CITY           SKY/WX    TMP DP  RH WIND       PRES   REMARKS
BRANDON        CLOUDY    61  55  82 NE20      29.85S
DAUPHIN        CLOUDY    50  46  87 N16       29.95R
ISLAND LAKE    CLOUDY    41  36  81 NE12G22   30.06R
PILOT MOUND      N/A     59  55  88 N9          N/A
THE PAS        CLOUDY    43  36  75 NE6       30.07S
THOMPSON       CLOUDY    37  30  75 E10       30.17S
WINNIPEG       LGT RAIN  59  59 100 N14       29.82R
LYNN LAKE      PTSUNNY   41  30  65 SE17      30.16F
CHURCHILL      CLOUDY    30  27  86 NE13      30.34R WCI  20
GILLAM         CLOUDY    36  30  80 NE16G24   30.21S
$$
                ***SASKATCHEWAN***

CITY           SKY/WX    TMP DP  RH WIND       PRES   REMARKS
ESTEVAN        NOT AVBL
KINDERSLEY     NOT AVBL
LLOYDMINSTER   PTSUNNY   70  41  35 S18G28    29.83S
PRINCE ALBERT  MOSUNNY   55  46  71 E17       29.95R
REGINA         PTSUNNY   70  52  52 E10       29.87F
YORKTON        SUNNY     61  52  72 NE14G21   29.92R
N. BATTLEFORD  CLOUDY    68  52  56 E12       29.89S  C1F1C2F2C3F3C4F4C5F5C6F6C7F7C8F8C9F9CaFaCbFbCcFcCdFdCe!



USA.gov is the U.S. government's official web portal to all federal, state and local government web resources and services.